Weather History for KLWM - August, 2013

Change the Weather History Date:

Wednesday, August 21, 2013

  Actual Average Record
Temperature  
Mean Temperature 76 °F -  
Max Temperature 88 °F 79 °F 95 °F (1983)
Min Temperature 64 °F 57 °F 48 °F (1926)
Cooling Degree Days 11    
Growing Degree Days 26 (Base 50)    
Moisture  
Dew Point 61 °F    
Average Humidity 61    
Maximum Humidity 84    
Minimum Humidity 40    
Precipitation  
Precipitation 0.00 in - - ()
Sea Level Pressure  
Sea Level Pressure 30.10 in    
Wind  
Wind Speed 3 mph (SW)    
Max Wind Speed 9 mph    
Max Gust Speed -    
Visibility 10 miles    
Events      
Averages and records for this station are not official NWS values.
T = Trace of Precipitation, MM = Missing Value Source: NWS Daily Summary

Daily Weather History Graph

Daily Weather History Graph

Search for Another Location

Airport or City:

Trip Planner

Search our weather history database for the weather conditions in past years. The results will help you decide how hot, cold, wet, or windy it might be!

Date:

Astronomy

Aug. 21, 2013 Rise Set
Actual Time 5:57 AM EDT 7:36 PM EDT
Civil Twilight 5:27 AM EDT 8:06 PM EDT
Nautical Twilight 4:51 AM EDT 8:42 PM EDT
Astronomical Twilight 4:12 AM EDT 9:21 PM EDT
Moon 7:40 PM EDT (8/21) 6:36 AM EDT (8/21)
Length of Visible Light 14h 38m
Length of Day
13h 39m
Full, 100% of the Moon is Illuminated
Aug 21
Full
Aug 28
Last Quarter
Sep 5
New
Sep 12
First Quarter
Sep 19
Full

Hourly Weather History & Observations

Time (EDT) Temp. Heat Index Dew Point Humidity Pressure Visibility Wind Dir Wind Speed Gust Speed Precip Events Conditions
12:54 AM 69.1 °F - 61.0 °F 75% 30.11 in 10.0 mi South 3.5 mph - N/A   Clear
1:54 AM 68.0 °F - 61.0 °F 78% 30.12 in 10.0 mi South 3.5 mph - N/A   Clear
2:54 AM 66.9 °F - 60.1 °F 79% 30.12 in 10.0 mi SSW 3.5 mph - N/A   Clear
3:54 AM 66.0 °F - 60.1 °F 81% 30.12 in 10.0 mi Calm Calm - N/A   Clear
4:54 AM 64.0 °F - 59.0 °F 84% 30.13 in 9.0 mi Calm Calm - N/A   Clear
5:54 AM 64.0 °F - 59.0 °F 84% 30.14 in 7.0 mi Calm Calm - N/A   Clear
6:54 AM 66.0 °F - 60.1 °F 81% 30.15 in 8.0 mi SSW 3.5 mph - N/A   Clear
7:54 AM 70.0 °F - 61.0 °F 73% 30.16 in 9.0 mi SW 4.6 mph - N/A   Clear
8:54 AM 73.9 °F - 62.1 °F 66% 30.15 in 10.0 mi Calm Calm - N/A   Clear
9:54 AM 78.1 °F - 62.1 °F 58% 30.16 in 10.0 mi Calm Calm - N/A   Clear
10:54 AM 82.0 °F 82.7 °F 61.0 °F 49% 30.14 in 10.0 mi Variable 3.5 mph - N/A   Clear
11:54 AM 84.0 °F 84.5 °F 62.1 °F 47% 30.14 in 10.0 mi West 8.1 mph - N/A   Clear
12:54 PM 86.0 °F 86.1 °F 61.0 °F 43% 30.12 in 10.0 mi West 4.6 mph - N/A   Clear
1:54 PM 87.1 °F 87.0 °F 61.0 °F 41% 30.11 in 10.0 mi Variable 3.5 mph - N/A   Clear
2:54 PM 88.0 °F 88.4 °F 62.1 °F 42% 30.09 in 10.0 mi West 6.9 mph - N/A   Clear
3:54 PM 88.0 °F 87.9 °F 61.0 °F 40% 30.07 in 10.0 mi Variable 5.8 mph - N/A   Clear
4:54 PM 87.1 °F 86.7 °F 60.1 °F 40% 30.06 in 10.0 mi West 5.8 mph - N/A   Clear
5:54 PM 86.0 °F 85.4 °F 59.0 °F 40% 30.05 in 10.0 mi West 9.2 mph - N/A   Clear
6:54 PM 84.0 °F 84.5 °F 62.1 °F 47% 30.04 in 10.0 mi SSW 5.8 mph - N/A   Clear
7:54 PM 80.1 °F 81.5 °F 63.0 °F 56% 30.04 in 10.0 mi SSW 5.8 mph - N/A   Clear
8:54 PM 78.1 °F - 63.0 °F 60% 30.05 in 10.0 mi SW 5.8 mph - N/A   Clear
9:54 PM 75.0 °F - 62.1 °F 64% 30.05 in 10.0 mi Calm Calm - N/A   Clear
10:54 PM 73.9 °F - 63.0 °F 68% 30.04 in 10.0 mi SSW 5.8 mph - N/A   Clear
11:54 PM 72.0 °F - 62.1 °F 71% 30.03 in 10.0 mi SSW 4.6 mph - N/A   Clear